| time (UTC) | temp F | wind direction | speed knots | gust knots | rain 1hr in | rain 24hr in | rain mn in | humidity % | barometer mb |
| 20260904015557 | 82 | 0 | 0.0 | 0.0 | 0.00 | 0.00 | 0.00 | 73 | 1013.1 |
| 20260904015056 | 82 | 0 | 0.0 | 0.0 | 0.00 | 0.00 | 0.00 | 73 | 1013.2 |
| 20260904014649 | 82 | 0 | 0.0 | 0.0 | 0.00 | 0.00 | 0.00 | 73 | 1013.1 |
| 20260904014055 | 82 | 0 | 0.0 | 0.0 | 0.00 | 0.00 | 0.00 | 73 | 1013.1 |
| 20260904013554 | 82 | 0 | 0.0 | 0.0 | 0.00 | 0.00 | 0.00 | 73 | 1013.1 |
| 20260904013109 | 82 | 0 | 0.0 | 0.0 | 0.00 | 0.00 | 0.00 | 72 | 1013.0 |
| 20260904012555 | 82 | 0 | 0.0 | 0.0 | 0.00 | 0.00 | 0.00 | 72 | 1013.0 |
| 20260904012052 | 82 | 0 | 0.0 | 0.0 | 0.00 | 0.00 | 0.00 | 72 | 1013.0 |
| 20260904011608 | 82 | 0 | 0.0 | 0.0 | 0.00 | 0.00 | 0.00 | 72 | 1013.0 |
| 20260904011055 | 82 | 0 | 0.0 | 0.0 | 0.00 | 0.00 | 0.00 | 72 | 1012.9 |
| 20260904010552 | 82 | 0 | 0.0 | 0.0 | 0.00 | 0.00 | 0.00 | 73 | 1012.9 |
| 20260904010105 | 81 | 0 | 0.0 | 0.0 | 0.00 | 0.00 | 0.00 | 72 | 1012.9 |
| 20260904005552 | 81 | 0 | 0.0 | 0.0 | 0.00 | 0.00 | 0.00 | 73 | 1012.9 |
| 20260904005055 | 81 | 0 | 0.0 | 0.0 | 0.00 | 0.00 | 0.00 | 73 | 1012.9 |
| 20260904004603 | 81 | 0 | 0.0 | 0.9 | 0.00 | 0.00 | 0.00 | 73 | 1013.0 |
| 20260904004053 | 81 | 0 | 0.0 | 1.7 | 0.00 | 0.00 | 0.00 | 73 | 1013.0 |
| 20260904003553 | 81 | 0 | 0.9 | 2.6 | 0.00 | 0.00 | 0.00 | 73 | 1012.9 |
| 20260904003112 | 82 | 139 | 1.7 | 2.6 | 0.00 | 0.00 | 0.00 | 73 | 1012.9 |
| 20260904002552 | 82 | 161 | 1.7 | 2.6 | 0.00 | 0.00 | 0.00 | 72 | 1012.8 |
| 20260904002055 | 82 | 162 | 1.7 | 4.3 | 0.00 | 0.00 | 0.00 | 71 | 1012.7 |
| 20260904001559 | 82 | 160 | 1.7 | 4.3 | 0.00 | 0.00 | 0.00 | 70 | 1012.8 |
| 20260904001053 | 83 | 196 | 3.5 | 4.3 | 0.00 | 0.00 | 0.00 | 69 | 1012.8 |
| 20260904000554 | 83 | 215 | 2.6 | 4.3 | 0.00 | 0.00 | 0.00 | 68 | 1012.9 |
| 20260903235556 | 83 | 214 | 2.6 | 6.1 | 0.00 | 0.00 | 0.00 | 67 | 1012.8 |
| 20260903235052 | 83 | 252 | 4.3 | 7.8 | 0.00 | 0.00 | 0.00 | 66 | 1012.8 |
| 20260903234614 | 83 | 235 | 6.1 | 9.6 | 0.00 | 0.00 | 0.00 | 66 | 1012.9 |
| 20260903234056 | 84 | 245 | 7.0 | 9.6 | 0.00 | 0.00 | 0.00 | 65 | 1012.7 |
| 20260903233553 | 84 | 264 | 6.1 | 9.6 | 0.00 | 0.00 | 0.00 | 63 | 1012.7 |
| 20260903233102 | 85 | 236 | 5.2 | 9.6 | 0.00 | 0.00 | 0.00 | 61 | 1012.9 |
| 20260903232555 | 85 | 267 | 7.0 | 9.6 | 0.00 | 0.00 | 0.00 | 60 | 1012.8 |
| 20260903232052 | 85 | 281 | 4.3 | 13.0 | 0.00 | 0.00 | 0.00 | 59 | 1012.7 |
| 20260903231604 | 85 | 259 | 7.0 | 17.4 | 0.00 | 0.00 | 0.00 | 60 | 1012.7 |
| 20260903231056 | 85 | 252 | 11.3 | 17.4 | 0.00 | 0.00 | 0.00 | 61 | 1012.9 |
| 20260903230556 | 86 | 266 | 11.3 | 14.8 | 0.00 | 0.00 | 0.00 | 59 | 1013.1 |
| 20260903230109 | 87 | 263 | 8.7 | 13.9 | 0.00 | 0.00 | 0.00 | 57 | 1012.8 |
| 20260903225553 | 87 | 259 | 8.7 | 12.2 | 0.00 | 0.00 | 0.00 | 58 | 1012.8 |
| 20260903225052 | 86 | 260 | 7.8 | 13.9 | 0.00 | 0.00 | 0.00 | 60 | 1012.9 |
| 20260903224619 | 86 | 248 | 10.4 | 13.9 | 0.00 | 0.00 | 0.00 | 59 | 1012.7 |
| 20260903224052 | 87 | 272 | 7.8 | 19.1 | 0.00 | 0.00 | 0.00 | 58 | 1012.8 |
| 20260903223553 | 86 | 240 | 11.3 | 20.9 | 0.00 | 0.00 | 0.00 | 60 | 1013.0 |
| 20260903223058 | 87 | 245 | 14.8 | 20.9 | 0.00 | 0.00 | 0.00 | 57 | 1013.0 |
| 20260903222552 | 89 | 240 | 11.3 | 21.7 | 0.00 | 0.00 | 0.00 | 57 | 1012.7 |
| 20260903222055 | 89 | 224 | 16.5 | 21.7 | 0.00 | 0.00 | 0.00 | 55 | 1012.8 |
| 20260903221603 | 93 | 213 | 7.0 | 13.0 | 0.00 | 0.00 | 0.00 | 50 | 1012.8 |
| 20260903221054 | 94 | 116 | 0.9 | 14.8 | 0.00 | 0.00 | 0.00 | 48 | 1012.4 |
| 20260903220553 | 94 | 101 | 2.6 | 14.8 | 0.00 | 0.00 | 0.00 | 47 | 1012.3 |
| 20260903220106 | 97 | 70 | 2.6 | 7.8 | 0.00 | 0.00 | 0.00 | 44 | 1012.1 |
| 20260903215554 | 98 | 68 | 1.7 | 4.3 | 0.00 | 0.00 | 0.00 | 41 | 1011.8 |
| 20260903215054 | 98 | 77 | 2.6 | 4.3 | 0.00 | 0.00 | 0.00 | 39 | 1011.9 |
| 20260903214559 | 100 | 64 | 1.7 | 4.3 | 0.00 | 0.00 | 0.00 | 39 | 1011.8 |
| 20260903214052 | 99 | 316 | 0.9 | 4.3 | 0.00 | 0.00 | 0.00 | 40 | 1012.0 |
| 20260903213553 | 99 | 13 | 2.6 | 4.3 | 0.00 | 0.00 | 0.00 | 39 | 1011.8 |
| 20260903213101 | 100 | 0 | 1.7 | 4.3 | 0.00 | 0.00 | 0.00 | 38 | 1011.8 |
| 20260903212552 | 99 | 326 | 1.7 | 7.0 | 0.00 | 0.00 | 0.00 | 39 | 1011.9 |
| 20260903212054 | 99 | 0 | 2.6 | 7.0 | 0.00 | 0.00 | 0.00 | 40 | 1012.0 |
| 20260903211600 | 100 | 281 | 4.3 | 7.0 | 0.00 | 0.00 | 0.00 | 39 | 1012.0 |
| 20260903211054 | 101 | 342 | 0.9 | 4.3 | 0.00 | 0.00 | 0.00 | 38 | 1012.1 |
| 20260903210554 | 100 | 0 | 1.7 | 4.3 | 0.00 | 0.00 | 0.00 | 38 | 1012.1 |
| 20260903210104 | 100 | 80 | 2.6 | 6.1 | 0.00 | 0.00 | 0.00 | 37 | 1012.2 |
| 20260903205553 | 101 | 179 | 1.7 | 6.1 | 0.00 | 0.00 | 0.00 | 38 | 1012.2 |
| 20260903205052 | 99 | 184 | 0.9 | 4.3 | 0.00 | 0.00 | 0.00 | 39 | 1012.3 |
| 20260903204605 | 100 | 160 | 1.7 | 6.1 | 0.00 | 0.00 | 0.00 | 38 | 1012.3 |
| 20260903204052 | 99 | 196 | 2.6 | 6.1 | 0.00 | 0.00 | 0.00 | 38 | 1012.5 |
| 20260903203556 | 99 | 153 | 2.6 | 7.0 | 0.00 | 0.00 | 0.00 | 40 | 1012.4 |
| 20260903203102 | 98 | 159 | 3.5 | 7.0 | 0.00 | 0.00 | 0.00 | 40 | 1012.5 |
| 20260903202554 | 99 | 134 | 4.3 | 7.0 | 0.00 | 0.00 | 0.00 | 39 | 1012.6 |
| 20260903202055 | 99 | 103 | 2.6 | 8.7 | 0.00 | 0.00 | 0.00 | 40 | 1012.7 |
| 20260903201603 | 99 | 80 | 2.6 | 10.4 | 0.00 | 0.00 | 0.00 | 40 | 1012.8 |
| 20260903201054 | 99 | 258 | 5.2 | 10.4 | 0.00 | 0.00 | 0.00 | 39 | 1012.8 |
| 20260903200553 | 99 | 276 | 7.8 | 10.4 | 0.00 | 0.00 | 0.00 | 40 | 1012.8 |
| 20260903200100 | 99 | 269 | 5.2 | 11.3 | 0.00 | 0.00 | 0.00 | 39 | 1012.9 |
| 20260903195555 | 99 | 226 | 5.2 | 11.3 | 0.00 | 0.00 | 0.00 | 39 | 1012.9 |
| 20260903195052 | 100 | 233 | 2.6 | 8.7 | 0.00 | 0.00 | 0.00 | 39 | 1013.1 |
| 20260903194604 | 99 | 233 | 1.7 | 7.0 | 0.00 | 0.00 | 0.00 | 40 | 1013.3 |
| 20260903194141 | 98 | 157 | 2.6 | 7.0 | 0.00 | 0.00 | 0.00 | 40 | 1013.4 |
| 20260903193555 | 99 | 111 | 0.9 | 7.0 | 0.00 | 0.00 | 0.00 | 40 | 1013.3 |
| 20260903193118 | 99 | 150 | 4.3 | 7.8 | 0.00 | 0.00 | 0.00 | 40 | 1013.6 |
| 20260903192555 | 99 | 79 | 0.9 | 7.8 | 0.00 | 0.00 | 0.00 | 41 | 1013.6 |
| 20260903192052 | 99 | 156 | 4.3 | 7.8 | 0.00 | 0.00 | 0.00 | 40 | 1013.7 |
| 20260903191606 | 98 | 0 | 1.7 | 4.3 | 0.00 | 0.00 | 0.00 | 41 | 1013.6 |
| 20260903191052 | 98 | 143 | 2.6 | 4.3 | 0.00 | 0.00 | 0.00 | 41 | 1013.8 |
| 20260903190554 | 99 | 64 | 0.9 | 4.3 | 0.00 | 0.00 | 0.00 | 40 | 1013.8 |
| 20260903190104 | 99 | 81 | 1.7 | 4.3 | 0.00 | 0.00 | 0.00 | 40 | 1013.9 |
| 20260903185552 | 99 | 22 | 1.7 | 5.2 | 0.00 | 0.00 | 0.00 | 39 | 1014.0 |
| 20260903185052 | 99 | 126 | 2.6 | 6.1 | 0.00 | 0.00 | 0.00 | 39 | 1014.1 |
| 20260903184600 | 99 | 162 | 1.7 | 6.1 | 0.00 | 0.00 | 0.00 | 42 | 1014.1 |
| 20260903184052 | 98 | 154 | 3.5 | 5.2 | 0.00 | 0.00 | 0.00 | 43 | 1014.1 |
| 20260903183558 | 98 | 67 | 1.7 | 5.2 | 0.00 | 0.00 | 0.00 | 43 | 1014.2 |
| 20260903183104 | 98 | 101 | 1.7 | 7.0 | 0.00 | 0.00 | 0.00 | 44 | 1014.2 |
| 20260903182558 | 97 | 122 | 3.5 | 7.0 | 0.00 | 0.00 | 0.00 | 44 | 1014.3 |
| 20260903182053 | 97 | 131 | 1.7 | 7.0 | 0.00 | 0.00 | 0.00 | 45 | 1014.3 |
| 20260903181607 | 95 | 243 | 3.5 | 7.0 | 0.00 | 0.00 | 0.00 | 46 | 1014.4 |
| 20260903181052 | 96 | 207 | 1.7 | 3.5 | 0.00 | 0.00 | 0.00 | 47 | 1014.7 |
| 20260903180554 | 95 | 0 | 0.0 | 3.5 | 0.00 | 0.00 | 0.00 | 47 | 1014.6 |
| 20260903180113 | 95 | 119 | 0.9 | 4.3 | 0.00 | 0.00 | 0.00 | 47 | 1014.7 |
| 20260903175553 | 95 | 162 | 2.6 | 4.3 | 0.00 | 0.00 | 0.00 | 47 | 1014.7 |
| 20260903175055 | 95 | 123 | 1.7 | 7.0 | 0.00 | 0.00 | 0.00 | 48 | 1014.9 |
| 20260903174600 | 95 | 220 | 5.2 | 7.0 | 0.00 | 0.00 | 0.00 | 46 | 1015.1 |
| 20260903174053 | 96 | 207 | 2.6 | 7.0 | 0.00 | 0.00 | 0.00 | 47 | 1015.0 |
| 20260903173552 | 96 | 237 | 2.6 | 7.0 | 0.00 | 0.00 | 0.00 | 46 | 1015.1 |
| 20260903173106 | 97 | 149 | 2.6 | 7.8 | 0.00 | 0.00 | 0.00 | 45 | 1015.1 |
| 20260903172557 | 97 | 159 | 3.5 | 7.8 | 0.00 | 0.00 | 0.00 | 46 | 1015.2 |
| 20260903172053 | 96 | 120 | 3.5 | 7.8 | 0.00 | 0.00 | 0.00 | 47 | 1015.2 |
| 20260903171556 | 96 | 139 | 3.5 | 8.7 | 0.00 | 0.00 | 0.00 | 46 | 1015.3 |
| 20260903171054 | 95 | 133 | 4.3 | 8.7 | 0.00 | 0.00 | 0.00 | 48 | 1015.3 |
| 20260903170552 | 96 | 99 | 2.6 | 6.1 | 0.00 | 0.00 | 0.00 | 48 | 1015.4 |
| 20260903170219 | 96 | 167 | 2.6 | 5.2 | 0.00 | 0.00 | 0.00 | 48 | 1015.5 |
| 20260903165555 | 96 | 134 | 0.9 | 3.5 | 0.00 | 0.00 | 0.00 | 48 | 1015.5 |
| 20260903165055 | 95 | 0 | 0.0 | 5.2 | 0.00 | 0.00 | 0.00 | 50 | 1015.6 |
| 20260903164600 | 94 | 240 | 0.9 | 6.1 | 0.00 | 0.00 | 0.00 | 50 | 1015.6 |
| 20260903164053 | 93 | 328 | 1.7 | 6.1 | 0.00 | 0.00 | 0.00 | 52 | 1015.7 |
| 20260903163558 | 93 | 166 | 2.6 | 7.8 | 0.00 | 0.00 | 0.00 | 52 | 1015.7 |
| 20260903163103 | 92 | 249 | 1.7 | 7.8 | 0.00 | 0.00 | 0.00 | 52 | 1015.8 |
| 20260903162558 | 92 | 41 | 5.2 | 7.8 | 0.00 | 0.00 | 0.00 | 52 | 1015.7 |
| 20260903162054 | 92 | 266 | 3.5 | 7.8 | 0.00 | 0.00 | 0.00 | 53 | 1015.8 |
| 20260903161622 | 93 | 172 | 1.7 | 7.0 | 0.00 | 0.00 | 0.00 | 53 | 1015.8 |
| 20260903161053 | 92 | 348 | 2.6 | 6.1 | 0.00 | 0.00 | 0.00 | 55 | 1015.8 |
| 20260903160555 | 92 | 283 | 1.7 | 7.0 | 0.00 | 0.00 | 0.00 | 53 | 1015.8 |
| 20260903160101 | 91 | 230 | 2.6 | 7.8 | 0.00 | 0.00 | 0.00 | 54 | 1016.0 |
| 20260903155554 | 91 | 293 | 2.6 | 7.8 | 0.00 | 0.00 | 0.00 | 55 | 1016.1 |
| 20260903155053 | 91 | 298 | 0.9 | 7.8 | 0.00 | 0.00 | 0.00 | 54 | 1015.9 |
| 20260903154601 | 91 | 330 | 0.0 | 7.8 | 0.00 | 0.00 | 0.00 | 55 | 1015.9 |
| 20260903154053 | 90 | 288 | 5.2 | 7.8 | 0.00 | 0.00 | 0.00 | 55 | 1016.0 |
| 20260903153553 | 90 | 305 | 2.6 | 7.0 | 0.00 | 0.00 | 0.00 | 56 | 1015.9 |
| 20260903153057 | 90 | 302 | 3.5 | 9.6 | 0.00 | 0.00 | 0.00 | 57 | 1015.9 |
| 20260903152555 | 90 | 321 | 4.3 | 9.6 | 0.00 | 0.00 | 0.00 | 56 | 1015.7 |
| 20260903152054 | 90 | 5 | 2.6 | 9.6 | 0.00 | 0.00 | 0.00 | 57 | 1015.9 |
| 20260903151603 | 89 | 300 | 6.1 | 9.6 | 0.00 | 0.00 | 0.00 | 58 | 1015.9 |
| 20260903151058 | 89 | 328 | 3.5 | 9.6 | 0.00 | 0.00 | 0.00 | 58 | 1015.9 |
| 20260903150554 | 89 | 311 | 4.3 | 7.8 | 0.00 | 0.00 | 0.00 | 58 | 1015.8 |
| 20260903145555 | 89 | 288 | 3.5 | 9.6 | 0.00 | 0.00 | 0.00 | 58 | 1015.9 |
| 20260903145053 | 88 | 309 | 5.2 | 7.0 | 0.00 | 0.00 | 0.00 | 59 | 1015.9 |
| 20260903144602 | 88 | 278 | 4.3 | 9.6 | 0.00 | 0.00 | 0.00 | 59 | 1015.9 |
| 20260903144053 | 88 | 285 | 5.2 | 9.6 | 0.00 | 0.00 | 0.00 | 61 | 1015.7 |
| 20260903143554 | 88 | 283 | 5.2 | 9.6 | 0.00 | 0.00 | 0.00 | 60 | 1015.9 |
| 20260903143101 | 88 | 276 | 5.2 | 9.6 | 0.00 | 0.00 | 0.00 | 59 | 1016.0 |
| 20260903142557 | 87 | 277 | 6.1 | 9.6 | 0.00 | 0.00 | 0.00 | 61 | 1015.9 |
| 20260903142053 | 87 | 300 | 6.1 | 10.4 | 0.00 | 0.00 | 0.00 | 61 | 1015.9 |
| 20260903141602 | 87 | 304 | 6.1 | 11.3 | 0.00 | 0.00 | 0.00 | 62 | 1016.0 |
| 20260903141058 | 87 | 303 | 4.3 | 11.3 | 0.00 | 0.00 | 0.00 | 63 | 1016.2 |
| 20260903140555 | 87 | 268 | 6.1 | 11.3 | 0.00 | 0.00 | 0.00 | 63 | 1016.0 |
| 20260903140104 | 87 | 283 | 3.5 | 9.6 | 0.00 | 0.00 | 0.00 | 63 | 1016.0 |
| 20260903135555 | 86 | 284 | 4.3 | 9.6 | 0.00 | 0.01 | 0.00 | 65 | 1016.2 |
| 20260903135055 | 85 | 307 | 5.2 | 7.8 | 0.00 | 0.01 | 0.00 | 65 | 1016.1 |
| 20260903134603 | 85 | 305 | 4.3 | 7.0 | 0.00 | 0.01 | 0.00 | 67 | 1016.2 |
| 20260903134053 | 84 | 294 | 2.6 | 7.0 | 0.00 | 0.01 | 0.00 | 69 | 1016.2 |
| 20260903133553 | 84 | 311 | 3.5 | 6.1 | 0.00 | 0.01 | 0.00 | 69 | 1016.2 |
| 20260903133101 | 84 | 280 | 3.5 | 6.1 | 0.00 | 0.01 | 0.00 | 71 | 1016.3 |
| 20260903132554 | 84 | 294 | 4.3 | 6.1 | 0.00 | 0.01 | 0.00 | 71 | 1016.4 |
| 20260903132054 | 83 | 303 | 2.6 | 4.3 | 0.00 | 0.01 | 0.00 | 72 | 1016.3 |
| 20260903131609 | 83 | 331 | 2.6 | 4.3 | 0.00 | 0.01 | 0.00 | 73 | 1016.2 |
| 20260903131053 | 82 | 309 | 0.9 | 1.7 | 0.00 | 0.01 | 0.00 | 76 | 1016.3 |
| 20260903130554 | 81 | 6 | 0.0 | 3.5 | 0.00 | 0.01 | 0.00 | 78 | 1016.1 |
| 20260903130107 | 80 | 0 | 0.9 | 3.5 | 0.00 | 0.01 | 0.00 | 80 | 1016.2 |
| 20260903125555 | 80 | 274 | 2.6 | 3.5 | 0.00 | 0.01 | 0.00 | 80 | 1016.2 |
| 20260903125054 | 79 | 259 | 2.6 | 3.5 | 0.00 | 0.01 | 0.00 | 81 | 1016.1 |
| 20260903124626 | 79 | 0 | 0.0 | 0.9 | 0.00 | 0.01 | 0.00 | 81 | 1016.1 |
| 20260903124054 | 80 | 257 | 0.0 | 0.0 | 0.00 | 0.01 | 0.00 | 81 | 1016.1 |
| 20260903123554 | 79 | 0 | 0.0 | 0.0 | 0.00 | 0.01 | 0.00 | 81 | 1015.9 |
| 20260903123106 | 78 | 0 | 0.0 | 0.0 | 0.00 | 0.01 | 0.00 | 82 | 1015.9 |
| 20260903122553 | 78 | 0 | 0.0 | 0.0 | 0.00 | 0.01 | 0.00 | 83 | 1015.9 |
| 20260903122055 | 78 | 0 | 0.0 | 0.0 | 0.00 | 0.01 | 0.00 | 84 | 1015.8 |
| 20260903121606 | 77 | 0 | 0.0 | 0.0 | 0.00 | 0.01 | 0.00 | 85 | 1015.8 |
| 20260903121053 | 76 | 0 | 0.0 | 0.0 | 0.00 | 0.01 | 0.00 | 86 | 1015.7 |
| 20260903120554 | 76 | 0 | 0.0 | 0.9 | 0.00 | 0.01 | 0.00 | 87 | 1015.7 |
| 20260903120106 | 75 | 0 | 0.0 | 0.9 | 0.00 | 0.01 | 0.00 | 87 | 1015.7 |
| 20260903115556 | 75 | 165 | 0.0 | 0.9 | 0.00 | 0.01 | 0.00 | 89 | 1015.5 |
| 20260903115051 | 75 | 0 | 0.0 | 0.0 | 0.00 | 0.01 | 0.00 | 89 | 1015.5 |
| 20260903114614 | 74 | 0 | 0.0 | 0.0 | 0.00 | 0.01 | 0.00 | 90 | 1015.4 |
| 20260903114054 | 74 | 0 | 0.0 | 0.0 | 0.00 | 0.01 | 0.00 | 90 | 1015.5 |
| 20260903113554 | 74 | 0 | 0.0 | 0.0 | 0.00 | 0.01 | 0.00 | 90 | 1015.5 |
| 20260903113109 | 74 | 0 | 0.0 | 0.0 | 0.00 | 0.01 | 0.00 | 90 | 1015.4 |
| 20260903112554 | 74 | 0 | 0.0 | 0.0 | 0.00 | 0.01 | 0.00 | 90 | 1015.4 |
| 20260903112054 | 74 | 0 | 0.0 | 0.0 | 0.00 | 0.01 | 0.00 | 90 | 1015.3 |
| 20260903111603 | 74 | 0 | 0.0 | 0.0 | 0.00 | 0.01 | 0.00 | 88 | 1015.3 |
| 20260903111054 | 74 | 0 | 0.0 | 0.0 | 0.00 | 0.01 | 0.00 | 88 | 1015.2 |
| 20260903110554 | 74 | 0 | 0.0 | 0.0 | 0.00 | 0.01 | 0.00 | 88 | 1015.1 |
| 20260903110108 | 74 | 0 | 0.0 | 0.0 | 0.00 | 0.01 | 0.00 | 88 | 1015.0 |
| 20260903105555 | 74 | 0 | 0.0 | 0.0 | 0.00 | 0.01 | 0.00 | 88 | 1014.9 |
| 20260903105055 | 75 | 0 | 0.0 | 0.0 | 0.00 | 0.01 | 0.00 | 87 | 1014.9 |
| 20260903104607 | 75 | 0 | 0.0 | 0.0 | 0.00 | 0.01 | 0.00 | 87 | 1015.0 |
| 20260903104052 | 75 | 0 | 0.0 | 0.0 | 0.00 | 0.01 | 0.00 | 86 | 1014.9 |
| 20260903103554 | 75 | 0 | 0.0 | 0.0 | 0.00 | 0.01 | 0.00 | 86 | 1014.9 |
| 20260903103101 | 76 | 0 | 0.0 | 0.0 | 0.00 | 0.01 | 0.00 | 85 | 1014.9 |
| 20260903102552 | 76 | 0 | 0.0 | 0.0 | 0.00 | 0.01 | 0.00 | 85 | 1014.9 |
| 20260903102054 | 76 | 0 | 0.0 | 0.0 | 0.00 | 0.01 | 0.00 | 87 | 1015.0 |
| 20260903101602 | 75 | 0 | 0.0 | 0.0 | 0.00 | 0.01 | 0.00 | 87 | 1014.9 |
| 20260903101055 | 75 | 0 | 0.0 | 0.0 | 0.00 | 0.01 | 0.00 | 86 | 1014.8 |
| 20260903100557 | 75 | 0 | 0.0 | 0.0 | 0.00 | 0.01 | 0.00 | 86 | 1014.6 |
| 20260903100105 | 75 | 0 | 0.0 | 0.0 | 0.00 | 0.01 | 0.00 | 87 | 1014.7 |
| 20260903095557 | 75 | 0 | 0.0 | 0.0 | 0.00 | 0.01 | 0.00 | 86 | 1014.9 |
| 20260903095057 | 75 | 0 | 0.0 | 0.0 | 0.00 | 0.01 | 0.00 | 86 | 1014.8 |
| 20260903094605 | 75 | 0 | 0.0 | 0.0 | 0.00 | 0.01 | 0.00 | 85 | 1014.8 |
| 20260903094055 | 75 | 0 | 0.0 | 0.0 | 0.00 | 0.01 | 0.00 | 85 | 1014.7 |
| 20260903093556 | 76 | 0 | 0.0 | 0.0 | 0.00 | 0.01 | 0.00 | 86 | 1014.8 |
| 20260903093110 | 76 | 0 | 0.0 | 0.0 | 0.00 | 0.01 | 0.00 | 84 | 1014.8 |
| 20260903092559 | 76 | 0 | 0.0 | 0.0 | 0.00 | 0.01 | 0.00 | 83 | 1014.7 |
| 20260903092056 | 77 | 0 | 0.0 | 0.0 | 0.00 | 0.01 | 0.00 | 83 | 1014.6 |
| 20260903091605 | 77 | 0 | 0.0 | 0.0 | 0.00 | 0.01 | 0.00 | 84 | 1014.7 |
| 20260903091057 | 77 | 0 | 0.0 | 0.0 | 0.00 | 0.01 | 0.00 | 84 | 1014.7 |
| 20260903090557 | 77 | 0 | 0.0 | 0.0 | 0.00 | 0.01 | 0.00 | 83 | 1014.7 |
| 20260903090111 | 77 | 0 | 0.0 | 0.9 | 0.00 | 0.01 | 0.00 | 83 | 1014.7 |
| 20260903085557 | 77 | 0 | 0.0 | 0.9 | 0.00 | 0.01 | 0.00 | 83 | 1014.6 |
| 20260903085056 | 77 | 0 | 0.0 | 0.9 | 0.00 | 0.01 | 0.00 | 83 | 1014.5 |
| 20260903084618 | 77 | 0 | 0.0 | 0.0 | 0.00 | 0.01 | 0.00 | 84 | 1014.5 |
| 20260903084056 | 77 | 0 | 0.0 | 2.6 | 0.00 | 0.01 | 0.00 | 84 | 1014.5 |
| 20260903083558 | 76 | 0 | 0.0 | 2.6 | 0.00 | 0.01 | 0.00 | 85 | 1014.6 |
| 20260903083103 | 76 | 257 | 1.7 | 3.5 | 0.00 | 0.01 | 0.00 | 84 | 1014.7 |
| 20260903082556 | 76 | 257 | 1.7 | 3.5 | 0.00 | 0.01 | 0.00 | 85 | 1014.7 |
| 20260903082059 | 76 | 254 | 3.5 | 3.5 | 0.00 | 0.01 | 0.00 | 84 | 1014.7 |
| 20260903081559 | 77 | 249 | 3.5 | 3.5 | 0.00 | 0.01 | 0.00 | 84 | 1014.6 |
| 20260903081058 | 77 | 240 | 2.6 | 2.6 | 0.00 | 0.01 | 0.00 | 83 | 1014.6 |
| 20260903080557 | 78 | 243 | 0.0 | 2.6 | 0.00 | 0.01 | 0.00 | 81 | 1014.6 |
| 20260903080105 | 78 | 0 | 0.0 | 0.0 | 0.00 | 0.01 | 0.00 | 80 | 1014.6 |
| 20260903075556 | 78 | 0 | 0.0 | 0.0 | 0.00 | 0.01 | 0.00 | 80 | 1014.6 |
| 20260903075056 | 79 | 0 | 0.0 | 0.0 | 0.00 | 0.01 | 0.00 | 79 | 1014.5 |
| 20260903074604 | 79 | 0 | 0.0 | 0.0 | 0.00 | 0.01 | 0.00 | 78 | 1014.4 |
| 20260903074057 | 79 | 0 | 0.0 | 0.0 | 0.00 | 0.01 | 0.00 | 78 | 1014.4 |
| 20260903073558 | 79 | 0 | 0.0 | 0.0 | 0.00 | 0.01 | 0.00 | 78 | 1014.3 |
| 20260903073106 | 79 | 0 | 0.0 | 0.9 | 0.00 | 0.01 | 0.00 | 78 | 1014.4 |
| 20260903072552 | 79 | 0 | 0.0 | 1.7 | 0.00 | 0.01 | 0.00 | 78 | 1014.3 |
| 20260903072057 | 79 | 0 | 0.0 | 1.7 | 0.00 | 0.01 | 0.00 | 77 | 1014.4 |
| 20260903071603 | 79 | 88 | 0.9 | 2.6 | 0.00 | 0.01 | 0.00 | 78 | 1014.4 |
| 20260903071056 | 79 | 74 | 0.9 | 2.6 | 0.00 | 0.01 | 0.00 | 78 | 1014.5 |
| 20260903070556 | 79 | 79 | 1.7 | 2.6 | 0.00 | 0.01 | 0.00 | 79 | 1014.6 |
| 20260903065558 | 79 | 90 | 1.7 | 2.6 | 0.00 | 0.01 | 0.00 | 80 | 1014.6 |
| 20260903065056 | 79 | 84 | 1.7 | 2.6 | 0.00 | 0.01 | 0.00 | 80 | 1014.5 |
| 20260903064600 | 79 | 0 | 0.0 | 1.7 | 0.00 | 0.01 | 0.00 | 80 | 1014.7 |
| 20260903064056 | 79 | 0 | 0.0 | 2.6 | 0.00 | 0.01 | 0.00 | 80 | 1014.4 |
| 20260903063557 | 79 | 101 | 1.7 | 2.6 | 0.00 | 0.01 | 0.00 | 80 | 1014.5 |
| 20260903063106 | 79 | 88 | 1.7 | 3.5 | 0.00 | 0.01 | 0.00 | 80 | 1014.6 |
| 20260903062558 | 79 | 96 | 2.6 | 3.5 | 0.00 | 0.01 | 0.00 | 80 | 1014.7 |
| 20260903062053 | 79 | 86 | 2.6 | 3.5 | 0.00 | 0.01 | 0.00 | 80 | 1014.7 |
| 20260903061605 | 79 | 90 | 1.7 | 2.6 | 0.00 | 0.01 | 0.00 | 80 | 1014.7 |
| 20260903061057 | 79 | 92 | 2.6 | 2.6 | 0.00 | 0.01 | 0.00 | 80 | 1014.8 |
| 20260903060556 | 78 | 94 | 1.7 | 2.6 | 0.00 | 0.01 | 0.00 | 81 | 1014.7 |
| 20260903060106 | 78 | 82 | 1.7 | 2.6 | 0.00 | 0.01 | 0.00 | 81 | 1014.6 |
| 20260903055557 | 78 | 97 | 0.9 | 1.7 | 0.00 | 0.01 | 0.00 | 81 | 1014.8 |
| 20260903055057 | 78 | 106 | 0.9 | 1.7 | 0.00 | 0.01 | 0.00 | 81 | 1014.8 |
| 20260903054558 | 78 | 112 | 0.0 | 1.7 | 0.00 | 0.01 | 0.00 | 81 | 1014.9 |
| 20260903054053 | 78 | 126 | 0.9 | 1.7 | 0.00 | 0.01 | 0.00 | 81 | 1014.7 |
| 20260903053553 | 78 | 135 | 0.0 | 0.0 | 0.00 | 0.01 | 0.00 | 81 | 1014.6 |
| 20260903053101 | 78 | 0 | 0.0 | 0.9 | 0.00 | 0.01 | 0.00 | 81 | 1014.7 |
| 20260903052553 | 78 | 0 | 0.0 | 0.9 | 0.00 | 0.01 | 0.00 | 81 | 1014.5 |
| 20260903052054 | 78 | 146 | 0.9 | 0.9 | 0.00 | 0.01 | 0.00 | 81 | 1014.7 |
| 20260903051609 | 78 | 118 | 0.9 | 1.7 | 0.00 | 0.01 | 0.00 | 81 | 1014.6 |
| 20260903051052 | 78 | 122 | 0.9 | 2.6 | 0.00 | 0.01 | 0.00 | 81 | 1014.5 |
| 20260903050556 | 79 | 110 | 1.7 | 2.6 | 0.00 | 0.01 | 0.00 | 80 | 1014.5 |
| 20260903045555 | 80 | 89 | 1.7 | 3.5 | 0.00 | 0.01 | 0.01 | 79 | 1014.5 |
| 20260903045059 | 80 | 88 | 2.6 | 3.5 | 0.00 | 0.01 | 0.01 | 78 | 1014.3 |
| 20260903044601 | 80 | 77 | 2.6 | 3.5 | 0.00 | 0.01 | 0.01 | 77 | 1014.4 |
| 20260903044058 | 80 | 0 | 0.0 | 2.6 | 0.00 | 0.01 | 0.01 | 77 | 1014.5 |
| 20260903043553 | 80 | 88 | 0.9 | 2.6 | 0.00 | 0.01 | 0.01 | 77 | 1014.5 |
| 20260903043104 | 80 | 0 | 0.0 | 1.7 | 0.00 | 0.01 | 0.01 | 77 | 1014.4 |
| 20260903042557 | 80 | 0 | 0.9 | 1.7 | 0.00 | 0.01 | 0.01 | 77 | 1014.4 |
| 20260903042056 | 80 | 83 | 0.0 | 0.0 | 0.00 | 0.01 | 0.01 | 77 | 1014.5 |
| 20260903041601 | 81 | 0 | 0.0 | 0.0 | 0.00 | 0.01 | 0.01 | 76 | 1014.4 |
| 20260903041056 | 80 | 0 | 0.0 | 0.0 | 0.00 | 0.01 | 0.01 | 76 | 1014.4 |
| 20260903040557 | 80 | 0 | 0.0 | 0.0 | 0.00 | 0.01 | 0.01 | 76 | 1014.5 |
| 20260903040058 | 80 | 0 | 0.0 | 0.0 | 0.00 | 0.01 | 0.01 | 76 | 1014.5 |
| 20260903035555 | 80 | 0 | 0.0 | 0.0 | 0.00 | 0.01 | 0.01 | 76 | 1014.5 |
| 20260903035056 | 81 | 0 | 0.0 | 0.0 | 0.00 | 0.01 | 0.01 | 76 | 1014.5 |
| 20260903034602 | 80 | 0 | 0.0 | 0.0 | 0.00 | 0.01 | 0.01 | 76 | 1014.4 |
| 20260903034057 | 80 | 0 | 0.0 | 0.0 | 0.00 | 0.01 | 0.01 | 76 | 1014.4 |
| 20260903033618 | 80 | 0 | 0.0 | 0.0 | 0.00 | 0.01 | 0.01 | 76 | 1014.5 |
| 20260903033102 | 81 | 0 | 0.0 | 0.0 | 0.00 | 0.01 | 0.01 | 75 | 1014.6 |
| 20260903032556 | 81 | 0 | 0.0 | 0.0 | 0.00 | 0.01 | 0.01 | 74 | 1014.5 |
| 20260903032057 | 81 | 0 | 0.0 | 0.0 | 0.00 | 0.01 | 0.01 | 74 | 1014.5 |
| 20260903031601 | 81 | 0 | 0.0 | 0.0 | 0.00 | 0.01 | 0.01 | 74 | 1014.3 |
| 20260903031056 | 81 | 0 | 0.0 | 0.0 | 0.00 | 0.01 | 0.01 | 74 | 1014.4 |
| 20260903030556 | 81 | 0 | 0.0 | 0.0 | 0.00 | 0.01 | 0.01 | 74 | 1014.5 |
| 20260903030059 | 82 | 0 | 0.0 | 0.0 | 0.00 | 0.01 | 0.01 | 74 | 1014.5 |
| 20260903025553 | 82 | 0 | 0.0 | 0.0 | 0.00 | 0.01 | 0.01 | 74 | 1014.4 |
| 20260903025053 | 81 | 0 | 0.0 | 0.0 | 0.00 | 0.01 | 0.01 | 74 | 1014.6 |
| 20260903024604 | 81 | 0 | 0.0 | 0.0 | 0.00 | 0.01 | 0.01 | 75 | 1014.4 |
| 20260903024052 | 81 | 0 | 0.0 | 0.0 | 0.00 | 0.01 | 0.01 | 75 | 1014.4 |
| 20260903023559 | 81 | 0 | 0.0 | 0.0 | 0.00 | 0.01 | 0.01 | 74 | 1014.5 |
| 20260903023106 | 82 | 0 | 0.0 | 0.0 | 0.00 | 0.01 | 0.01 | 74 | 1014.5 |
| 20260903022556 | 82 | 0 | 0.0 | 0.0 | 0.00 | 0.01 | 0.01 | 74 | 1014.5 |
| 20260903022059 | 82 | 0 | 0.0 | 0.0 | 0.00 | 0.01 | 0.01 | 74 | 1014.4 |
| 20260903021602 | 82 | 0 | 0.0 | 0.0 | 0.00 | 0.01 | 0.01 | 73 | 1014.3 |
| 20260903021055 | 82 | 0 | 0.0 | 0.0 | 0.00 | 0.01 | 0.01 | 72 | 1014.3 |
| 20260903020556 | 82 | 0 | 0.0 | 0.0 | 0.00 | 0.01 | 0.01 | 72 | 1014.4 |
| 20260903020101 | 82 | 0 | 0.0 | 0.0 | 0.00 | 0.01 | 0.01 | 72 | 1014.3 |